[Iaude] MPEC V146: 2023 VP4 [a=1.02,e=0.17,i=6.0,H=28.4]
    mpec at marsden.cfa.harvard.edu 
    mpec at marsden.cfa.harvard.edu
       
    Thu Nov  9 16:04:01 EST 2023
    
    
  
M.P.E.C. 2023-V146                             Issued 2023 November 9, 21:02 UT
     The Minor Planet Electronic Circulars contain information on unusual
         minor planets, routine data on comets and natural satellites,
         and occasional editorial announcements.  They are published
    on behalf of Division F of the International Astronomical Union by the
          Minor Planet Center, Smithsonian Astrophysical Observatory,
                          Cambridge, MA 02138, U.S.A.
			  
             Prepared using the Tamkin Foundation Computer Network
                              MPC at CFA.HARVARD.EDU
            URL https://www.minorplanetcenter.net/    ISSN 1523-6714
                                    2023 VP4                                    
Observations:
     K23V04P* C2023 11 09.00865 03 34 57.16 +25 53 16.4          20.1 GVEV146K88
     K23V04P  C2023 11 09.01312 03 34 58.32 +25 51 59.8          19.5 GVEV146K88
     K23V04P KC2023 11 09.04469903 35 06.06 +25 42 54.3          19.8 RoEV146K88
     K23V04P KC2023 11 09.04768103 35 06.78 +25 42 02.5          20.0 RoEV146K88
     K23V04P hC2023 11 09.04844703 35 08.84 +25 42 18.1          20.2 GVEV146L01
     K23V04P hC2023 11 09.04943503 35 09.04 +25 42 00.2          19.7 GVEV146L01
     K23V04P hC2023 11 09.05042303 35 09.34 +25 41 43.6          20.2 GVEV146L01
     K23V04P hC2023 11 09.05141203 35 09.58 +25 41 25.6          20.4 GVEV146L01
     K23V04P hC2023 11 09.05437703 35 10.29 +25 40 34.0          20.5 GVEV146L01
     K23V04P 1C2023 11 09.05749 03 35 13.11 +25 38 57.3          20.5 VXEV146033
     K23V04P 1C2023 11 09.05807 03 35 13.27 +25 38 47.5          20.5 VXEV146033
     K23V04P 1C2023 11 09.05865 03 35 13.42 +25 38 37.4          20.2 VXEV146033
     K23V04P KC2023 11 09.07537003 35 14.12 +25 33 55.1          19.9 RoEV146K88
     K23V04P KC2023 11 09.08033503 35 15.42 +25 32 27.0          20.3 RoEV146K88
     K23V04P KC2023 11 09.08530803 35 16.81 +25 30 59.2          19.8 RoEV146K88
     K23V04P KC2023 11 09.22855703 36 48.21 +24 51 01.7          20.1 GXEV146858
     K23V04P KC2023 11 09.23423603 36 49.53 +24 49 21.7          19.9 GXEV146858
     K23V04P KC2023 11 09.24035703 36 50.98 +24 47 34.2          19.9 GXEV146858
     K23V04P KB2023 11 09.32701 03 37 05.16 +24 20 33.8          19.7 GVEV146734
     K23V04P KB2023 11 09.33297 03 37 06.57 +24 18 40.5          19.8 GVEV146734
     K23V04P KB2023 11 09.33893 03 37 07.98 +24 16 46.3          19.6 GVEV146734
     K23V04P mC2023 11 09.43687803 37 38.600+23 45 56.66         21.17GVEV146I52
     K23V04P mC2023 11 09.43710603 37 38.654+23 45 52.27         19.64GVEV146I52
     K23V04P mC2023 11 09.43733403 37 38.752+23 45 47.34         19.99GVEV146I52
     K23V04P mC2023 11 09.43756203 37 38.809+23 45 43.06         20.21GVEV146I52
     K23V04P KC2023 11 09.81566 03 41 15.08 +21 31 18.8          20.3 VqEV146M38
     K23V04P KC2023 11 09.82622 03 41 19.06 +21 27 28.3          20.0 VqEV146M38
Observer details:
033 Karl Schwarzschild Observatory, Tautenburg.  Observers S. Melnikov, C.
    Hogner, F. Ludwig, M. Hartmann, B. Stecklum.  Measurer B. Stecklum.
    1.34-m f/3 Schmidt + CCD.
734 Farpoint Observatory, Eskridge.  Observer .
858 Tebbutt Observatory, Edgewood.  Observer F. B. Zoltowski.  0.51-m f/8.1
    Schmidt-Cassegrain + CCD.
I52 Steward Observatory, Mt. Lemmon Station.  Observer H. Groeller.  Measurers
    E. C. Beshore, D. Fay, J. B. Fazekas, D. C. Fuls, A. R. Gibbs, A. D.
    Grauer, H. Groeller, J. K. Hogan, R. A. Kowalski, S. M. Larson, G. J.
    Leonard, D. Rankin, R. L. Seaman, F. C. Shelly, K. W. Wierzchos.  1.0-m
    prime focus + CCD.
K88 GINOP-KHK, Piszkesteto.  Observer K. Sarneczky.  0.60-m Schmidt + CCD.
L01 Visnjan Observatory, Tican.  Observer K. Korlevic.  1.0-m f/2.9 reflector
    + CCD.
M38 Harsona Observatory, Nyiregyhaza.  Observer T. Elek.  0.20-m f/3 reflector
    + CCD.
Orbital elements:
2023 VP4                                                 Earth MOID = 0.0076 AU
Epoch 2023 Sept. 13.0 TT = JDT 2460200.5                Veres                   
M 229.88090              (2000.0)            P               Q                  
n   0.95427174     Peri.  274.08413     -0.77678544     -0.62499589             
a   1.0217736      Node   227.25534     +0.61149483     -0.71916342             
e   0.1691333      Incl.    6.04671     +0.15059367     -0.30361837             
P   1.03           H   28.45          G   0.15           U   6                  
Residuals in seconds of arc
231109 K88  1.3-  1.0+    231109 033  0.0   0.2-    231109 734  0.0   0.1-
231109 K88  0.0   0.6+    231109 033  0.1+  0.1+    231109 734  0.0   0.2+
231109 K88  0.3+  0.5-    231109 033  0.1+  0.1+    231109 734  0.3-  0.0
231109 K88  0.2-  0.2-    231109 K88  0.7+  0.1-    231109 I52  0.2-  0.1-
231109 L01  0.2-  0.4+    231109 K88  0.1-  0.1+    231109 I52  0.3-  0.1+
231109 L01  0.6-  0.3-    231109 K88  0.0   1.0+    231109 I52  0.2+  0.2-
231109 L01  0.2+  0.3+    231109 858  0.4+  0.3+    231109 I52  0.2+  0.1+
231109 L01  0.2+  0.5-    231109 858  0.2-  0.1-    231109 M38  0.2-  0.3+
231109 L01  0.1+  0.3-    231109 858  0.2-  0.2+    231109 M38  0.7+  0.1+
Ephemeris:
2023 VP4                 a,e,i = 1.02, 0.17, 6                   q = 0.8490
Date    TT    R. A. (2000) Decl.     Delta      r    Elong.  Phase     V
2023 10 10    02 46 19.4 +43 27 56   0.1220  1.0900   136.1    39.5    25.6
...
2023 10 25    02 59 53.5 +43 25 31   0.06711 1.0506   145.5    32.5    24.1
...
2023 11 02    03 10 44.5 +40 01 29   0.03985 1.0280   152.7    26.3    22.7
...
2023 11 08    03 29 17.1 +29 54 50   0.02050 1.0107   163.7    16.0    20.9
2023 11 09    03 35 00.8 +25 59 06   0.01748 1.0078   166.6    13.1    20.4
2023 11 10    03 42 23.8 +20 25 39   0.01459 1.0048   168.9    10.9    20.0
...
2023 11 16    07 56 30.7 -72 03 44   0.01074 0.9871    78.7   100.6    22.2
...
2023 11 24    14 05 30.3 -61 15 05   0.03443 0.9635    45.2   133.4    27.1
...
2023 12 09    14 44 33.3 -52 35 33   0.08471 0.9213    39.5   137.1    29.4
M. P. C. Staff               (C) Copyright 2023 MPC           M.P.E.C. 2023-V146
    
    
More information about the Iaude
mailing list